Theta_e
361 360 359 359 359 358 357 356 356 354 352 351 351 351 351 351 353 353 351 352 353 355 355 355 359 358 353 355 358 358 359 358 356 354 351 352 356 356 355 354 353 354
361 360 360 360 359 359 358 356 356 356 354 353 351 350 350 352 353 353 352 352 352 353 354 355 358 358 353 354 358 359 360 358 355 353 351 353 355 355 354 353 352 353
361 360 360 360 360 360 360 358 357 356 355 353 352 351 351 351 351 351 352 352 352 351 352 353 356 357 355 356 358 360 361 358 354 354 355 355 353 353 353 353 353 354
360 360 360 360 360 359 359 360 358 357 355 353 353 352 352 352 350 350 351 353 354 352 352 353 355 356 355 357 358 358 358 357 354 353 356 356 355 354 355 355 355 355
360 360 359 359 360 360 359 360 359 358 356 354 353 352 352 353 352 350 350 353 355 354 352 353 354 355 355 357 358 358 356 354 352 351 353 355 357 357 357 356 357 356
359 360 360 359 360 361 359 359 358 357 356 355 354 353 352 353 352 351 350 352 354 354 353 352 353 355 355 357 359 359 357 354 352 352 353 357 359 358 357 357 357 357
359 360 360 360 360 360 360 359 358 357 357 356 355 355 354 352 351 351 351 352 353 352 352 353 353 355 356 357 359 359 358 356 355 356 357 359 359 357 358 357 356 356
359 358 359 359 359 359 359 359 359 358 358 357 356 356 357 355 352 351 351 352 353 352 352 353 354 357 357 356 358 358 358 357 356 357 358 359 358 357 357 356 355 356
358 357 359 360 359 359 358 358 358 359 359 358 357 357 357 356 354 352 352 352 354 353 353 353 354 358 358 357 357 358 358 357 356 356 358 358 358 356 355 355 355 355
357 357 359 359 357 358 359 359 360 360 360 359 357 357 356 355 354 354 354 354 356 356 356 355 356 358 359 359 358 359 359 358 357 357 357 358 357 356 356 355 352 353
356 356 356 356 355 356 358 360 360 359 360 359 357 356 356 355 355 356 356 357 359 358 357 357 358 359 360 360 359 359 358 358 358 357 357 358 357 357 358 356 354 354
357 355 354 354 354 354 356 360 359 357 358 357 356 356 356 357 357 358 359 359 360 360 358 358 358 359 360 359 359 359 359 359 358 358 358 358 357 358 359 359 359 358
356 354 352 353 354 353 354 358 358 357 357 356 356 356 357 358 359 359 360 358 359 360 359 358 358 359 360 360 360 360 360 359 358 358 358 358 358 358 358 359 359 359
355 354 353 353 354 353 354 357 358 357 356 355 355 355 355 356 357 358 358 358 358 359 359 358 358 359 360 361 362 361 360 359 359 358 358 358 358 358 357 357 359 359
355 355 355 355 355 355 355 357 357 357 357 356 355 355 354 354 355 356 357 357 357 359 359 359 358 358 360 361 361 362 360 359 358 358 358 358 358 357 356 357 358 358
356 356 355 355 355 355 355 356 355 356 356 356 355 355 355 354 354 355 355 355 357 357 357 358 357 357 358 358 358 359 360 359 357 357 357 357 357 357 356 356 357 357
355 355 354 354 353 354 354 354 354 354 354 353 353 353 353 353 352 353 353 354 355 355 354 356 356 354 355 356 356 356 357 358 357 356 357 357 357 356 356 356 355 356
353 353 353 352 352 353 352 352 352 351 350 350 351 351 352 353 352 352 352 353 354 354 353 354 354 352 352 354 355 354 355 356 356 356 356 357 356 356 355 355 355 354
351 352 351 351 351 351 351 351 349 349 349 350 350 351 351 351 352 351 351 352 352 351 351 352 352 351 351 353 354 353 353 354 353 355 356 356 355 355 355 354 353 351
350 351 350 351 351 350 350 350 349 349 350 350 351 351 350 350 350 349 349 349 348 349 350 351 352 351 351 353 352 352 352 352 352 353 354 355 355 355 354 353 353 353
350 350 350 351 352 351 351 351 350 351 351 351 352 351 350 349 349 348 347 345 346 347 349 350 351 351 352 352 351 352 352 352 352 352 353 354 354 354 354 354 355 355
351 352 352 352 352 352 351 350 350 350 350 351 351 350 349 349 349 349 347 345 345 347 348 349 350 352 352 351 351 351 351 351 352 352 353 353 353 352 354 354 355 355
354 354 354 353 352 351 349 348 348 349 349 349 348 348 349 349 348 349 349 348 348 348 348 349 350 351 351 350 350 350 350 351 353 353 353 352 351 351 352 352 351 352
356 354 354 353 351 349 347 346 346 347 348 348 347 348 349 349 349 350 350 350 350 350 350 350 350 350 349 349 349 349 350 350 351 351 351 349 348 348 348 348 348 348
355 353 352 352 350 348 346 344 345 347 348 348 347 347 348 348 349 350 351 350 349 349 349 349 348 348 348 348 348 348 348 347 347 348 349 347 347 347 347 347 347 346
354 352 351 351 349 348 346 345 346 348 349 348 347 347 348 348 348 349 349 349 348 348 348 347 346 346 347 347 346 346 346 345 344 345 346 346 347 347 347 347 346 345
Wind_Speed
16 15 15 15 15 14 13 13 12 12 13 13 13 13 13 12 11 12 12 12 12 12 12 11 9 10 12 11 11 11 10 10 11 12 13 13 12 12 12 13 14 12
17 16 15 14 14 14 14 14 13 13 13 13 13 13 12 11 11 11 12 12 12 13 14 12 11 11 13 13 12 11 11 13 15 13 13 14 13 13 14 15 15 13
18 17 16 15 15 14 14 14 14 14 13 14 14 14 13 13 13 12 12 12 12 13 13 14 13 13 14 14 13 12 11 14 16 13 13 15 14 14 15 15 14 12
17 17 17 16 16 15 14 14 14 14 14 14 14 15 14 14 14 13 13 12 12 13 13 13 14 14 14 14 14 15 14 16 17 14 14 15 15 15 15 14 13 12
17 17 17 17 16 16 15 15 15 15 15 15 15 15 15 15 15 15 15 14 13 14 14 14 14 14 14 13 14 15 16 16 17 15 15 16 15 14 13 13 13 12
16 17 17 18 17 17 17 17 17 17 17 16 16 15 15 15 15 15 16 15 14 14 15 15 15 14 13 13 14 14 15 16 15 15 15 15 14 13 12 12 13 13
17 17 18 17 17 17 17 17 17 17 17 17 16 15 15 16 16 16 16 16 15 15 15 15 15 14 13 13 14 14 14 15 14 12 12 13 13 13 13 13 13 14
17 17 18 17 17 17 17 17 18 18 18 17 16 16 15 15 16 17 17 17 17 17 16 16 15 14 14 14 14 14 14 15 14 13 13 14 14 14 15 14 14 14
16 15 15 15 16 17 17 19 19 19 18 18 18 17 17 17 17 17 18 18 18 17 17 17 16 15 15 15 15 15 15 15 14 14 14 15 15 15 16 16 15 15
16 15 13 14 16 16 17 17 16 16 16 16 18 18 18 18 17 17 18 18 18 18 18 18 18 16 16 16 16 16 16 16 15 15 15 15 15 15 15 16 16 17
16 16 16 17 18 18 15 15 15 16 15 16 19 18 17 16 16 16 16 17 17 18 18 19 19 18 17 17 17 17 16 16 16 16 16 16 16 15 14 14 15 17
16 17 18 19 19 18 16 15 17 17 15 16 17 18 16 15 15 15 16 17 18 18 19 19 19 18 18 18 17 16 16 16 16 16 17 16 16 16 15 15 16 16
17 18 19 18 17 18 19 18 17 16 16 16 16 16 16 15 15 15 16 17 17 18 19 19 19 18 18 18 17 16 16 16 16 17 16 16 16 16 16 16 16 16
15 16 17 17 17 19 20 19 17 17 18 17 17 18 19 18 18 17 17 18 17 18 18 18 19 18 18 18 17 17 16 16 16 16 16 16 15 16 16 16 16 16
13 13 14 15 16 18 19 17 17 18 18 17 18 19 19 20 20 19 19 18 18 19 18 19 20 20 19 19 18 17 16 16 16 15 15 15 15 15 15 15 15 15
13 12 13 14 15 17 17 18 18 18 17 17 18 17 16 17 19 21 21 21 21 21 20 20 20 21 20 20 19 17 15 15 14 14 14 15 15 14 14 14 15 15
12 11 12 14 15 16 16 16 17 17 16 17 18 17 15 15 18 21 23 24 25 25 23 23 22 21 20 20 20 18 15 13 12 13 13 14 14 13 13 13 14 14
12 12 13 14 14 14 13 12 13 14 15 15 16 16 14 14 16 19 22 25 26 26 26 24 22 21 20 18 19 20 18 15 12 12 13 12 12 12 11 12 13 14
11 12 13 13 11 11 10 9 10 11 12 13 13 12 12 14 15 17 20 23 23 24 25 23 20 19 19 18 18 20 21 19 15 13 12 11 10 10 10 12 14 15
10 11 12 10 8 6 6 7 8 9 11 11 11 10 12 13 14 15 18 20 20 20 22 23 21 18 17 18 19 19 19 19 17 15 12 11 10 10 11 13 13 12
9 10 10 8 6 5 4 4 5 7 9 10 9 10 12 12 13 14 15 18 20 20 20 21 19 16 16 17 18 18 18 17 16 15 13 11 11 10 10 11 10 10
7 8 8 6 6 7 7 5 3 5 9 11 11 12 12 12 12 11 11 14 18 19 18 17 16 15 16 17 17 17 17 15 14 14 12 12 12 11 9 9 9 8
6 6 7 8 8 8 8 7 5 4 8 12 14 14 12 12 12 11 10 11 14 16 16 14 13 14 16 17 16 16 16 14 13 12 10 10 11 9 7 7 8 8
5 6 7 8 7 7 8 9 9 7 6 10 14 16 15 13 12 10 10 11 12 13 13 12 11 13 15 15 15 16 16 13 11 11 10 9 8 7 7 7 8 9
6 6 7 8 9 8 8 9 10 8 7 9 14 16 15 12 10 10 9 10 10 10 10 10 10 11 12 13 13 14 13 11 10 11 10 9 8 8 9 9 8 8
6 7 7 9 10 9 9 9 10 9 8 9 11 12 11 10 9 9 8 8 8 7 8 8 8 10 11 11 11 13 13 12 11 10 9 9 9 9 9 9 9 9
Wind_Direction
213 215 215 218 219 219 219 215 215 219 221 224 224 220 222 223 224 227 231 232 228 227 229 226 222 230 239 238 233 232 231 236 241 249 261 261 256 258 262 264 264 269
211 216 217 219 221 220 220 219 219 222 224 226 228 227 225 223 223 227 232 235 235 232 230 228 225 230 237 231 224 225 224 232 241 249 258 256 250 254 257 259 259 258
211 214 218 221 223 223 223 223 224 228 230 230 231 232 231 229 229 231 234 236 238 237 233 229 226 228 231 224 219 222 223 235 246 245 242 243 246 250 250 251 250 247
214 214 219 224 227 229 229 229 228 229 233 233 233 233 232 233 234 234 234 235 238 239 234 230 227 227 228 221 219 225 228 241 252 247 238 239 239 238 239 242 243 240
218 217 219 223 226 227 226 228 230 231 233 234 234 234 233 233 234 234 233 232 233 233 231 228 225 223 223 218 219 225 228 236 240 231 227 232 231 230 234 236 236 237
218 218 219 220 221 222 222 225 228 230 232 233 234 235 234 233 234 231 229 230 231 229 227 226 223 222 222 218 220 226 230 236 234 221 219 225 227 227 231 231 229 233
212 215 220 220 221 223 225 228 230 230 230 230 231 233 233 234 233 229 227 230 232 231 228 227 224 224 224 221 222 226 230 237 239 232 226 225 227 228 228 227 229 233
211 215 219 220 222 226 228 229 230 229 227 224 226 229 230 232 233 231 230 230 232 233 231 231 227 223 224 225 225 226 227 231 235 234 231 228 227 228 227 227 229 233
222 222 220 219 223 228 231 232 231 229 224 219 220 223 225 229 231 232 233 232 232 233 232 234 230 222 222 225 225 224 225 230 234 234 234 233 232 229 228 229 231 233
228 226 224 227 230 232 235 237 237 235 230 223 222 223 225 230 231 231 235 234 231 231 230 230 227 222 221 224 225 224 224 227 231 233 235 236 238 236 231 230 234 236
227 222 224 229 233 236 238 237 235 235 235 234 233 232 231 233 234 232 233 232 229 230 230 227 223 220 221 223 225 226 225 226 227 230 233 235 238 240 236 231 231 233
221 219 222 224 226 231 233 234 234 232 234 238 238 237 235 236 236 234 231 230 230 232 231 227 224 223 222 223 225 225 224 225 227 229 231 233 235 236 236 233 231 232
222 224 230 229 226 226 227 230 230 225 226 233 234 232 231 231 234 236 236 235 235 236 234 230 228 227 225 222 221 221 221 224 227 229 230 231 232 234 236 236 235 235
231 232 232 230 228 228 228 229 227 222 223 228 231 232 232 231 231 235 240 241 240 240 237 232 229 228 226 222 217 216 218 221 225 227 228 229 230 234 237 238 237 238
235 232 231 230 228 227 227 227 226 225 225 229 232 234 234 233 232 231 235 239 241 240 238 234 230 229 228 223 218 214 215 218 222 226 228 230 232 236 238 237 238 240
237 231 233 234 231 231 232 231 229 227 228 232 234 232 231 232 233 232 232 235 237 237 238 235 232 232 232 227 220 216 214 216 222 226 229 232 235 237 238 239 241 242
239 232 233 233 232 235 237 235 233 232 233 236 236 237 236 233 235 235 232 233 235 236 239 237 232 232 234 228 221 218 214 214 222 227 232 236 237 237 238 240 242 242
233 230 229 229 230 235 240 243 242 240 241 241 240 241 239 233 235 237 235 236 235 234 236 235 229 229 231 225 222 222 218 217 225 231 234 236 238 240 240 240 243 242
226 227 226 225 227 233 243 252 253 248 243 240 238 238 237 236 238 237 233 231 228 228 231 231 228 230 231 225 224 227 224 219 223 231 236 238 238 240 240 240 241 240
221 222 222 221 221 230 242 251 259 259 248 240 237 236 239 243 243 240 235 229 226 228 229 225 225 229 226 223 226 227 221 217 219 226 233 237 238 239 240 239 236 231
216 214 214 214 209 212 225 236 264 280 273 264 258 249 247 248 245 242 237 229 228 232 226 219 220 220 216 220 226 223 215 213 220 225 228 231 233 233 236 237 232 226
203 202 194 191 194 201 214 220 243 299 292 283 275 263 253 247 241 238 230 216 217 224 221 213 212 212 214 221 224 219 213 213 219 223 222 225 227 223 223 229 230 231
189 186 168 169 190 207 218 219 209 239 272 274 271 265 252 240 232 226 219 205 204 213 212 205 203 210 218 222 217 210 205 205 210 211 208 212 216 209 206 219 227 232
183 181 165 169 192 208 218 221 210 208 232 254 259 257 250 240 228 216 211 204 200 205 205 200 202 210 214 215 211 203 198 198 199 194 194 202 203 197 203 214 222 230
179 185 182 185 198 207 215 215 204 194 201 229 245 250 249 243 226 208 201 196 193 196 197 195 200 204 203 203 202 196 190 189 184 179 185 195 195 201 211 212 220 243
193 196 194 193 198 203 206 199 187 179 187 209 228 239 245 244 227 208 194 183 183 188 187 186 188 188 186 182 178 174 173 175 176 174 180 192 201 213 224 227 231 242